Regional Weather Roundup
Issued by NWS

Home | Current Version | Previous Version | Text Only | Print | Product List | Glossary On
Versions: 1 2 3 4 5 6 7 8 9 10 11 12 13 14 15 16 17 18 19 20 21 22 23 24 25 26 27 28 29 30 31 32 33 34 35 36 37 38 39 40 41 42 43 44 45 46 47
000
ASUS42 KFFC 030003
RWRGA
WEATHER ROUNDUP FOR GEORGIA
NATIONAL WEATHER SERVICE PEACHTREE CITY GA
700 PM EST MON MAR 02 2015

NOTE: "FAIR" INDICATES FEW OR NO CLOUDS BELOW 12,000 FEET WITH NO
SIGNIFICANT WEATHER AND/OR OBSTRUCTIONS TO VISIBILITY.

* = USE WITH CAUTION. THE STATIONS MARKED WITH AN ASTERISK MAY NOT
REPORT WEATHER SUCH AS PRECIPITATION, FOG, OR THUNDER AND ARE NOT
QUALITY CONTROLLED BY NWS.

THE REMARK "TC" DENOTES TEMPERATURE READING IN DEGREES CELSIUS.

GAZ001>058-030100-
NORTH GEORGIA

CITY           SKY/WX    TMP DP  RH WIND       PRES   REMARKS
ATLANTA        CLOUDY    57  48  72 NW7       30.26R
6HR MIN TEMP:  57; 6HR MAX TEMP:  63; 6HR PCP: TRACE;

ATHENS         MOCLDY    62  50  64 W5        30.22R
6HR MIN TEMP:  62; 6HR MAX TEMP:  73;

CHAMBLEE       CLOUDY    56  45  66 W9        30.26R
6HR MIN TEMP:  56; 6HR MAX TEMP:  62;

PEACHTREE CITY LGT RAIN  58  51  78 NW6       30.26R
6HR MIN TEMP:  58; 6HR MAX TEMP:  66; 6HR PCP:  0.01;

ROME           LGT RAIN  53  45  74 NW6       30.26F
6HR MIN TEMP:  53; 6HR MAX TEMP:  59; 6HR PCP: TRACE;

WEST ATLANTA   LGT RAIN  57  45  64 VRB5      30.26R
6HR MIN TEMP:  57; 6HR MAX TEMP:  61; 6HR PCP: TRACE;

GAINESVILLE    MOCLDY    59  48  67 SW7       30.24R
6HR MIN TEMP:  59; 6HR MAX TEMP:  68;

CARTERSVILLE   CLOUDY    54  43  66 CALM      30.27S
6HR MIN TEMP:  53; 6HR MAX TEMP:  59;



CITY           SKY/WX    TMP DP  RH WIND       PRES   REMARKS
DALTON*        MOCLDY    50  43  76 CALM      30.28R
LAWRENCEVILLE* MOCLDY    59  43  55 W6        30.24R
MARIETTA       CLOUDY    56  46  68 W6        30.25S
KENNESAW*      MOCLDY    55  43  62 N3        30.28S
$$

GAZ059>098-102>109-030100-
CENTRAL GEORGIA

CITY           SKY/WX    TMP DP  RH WIND       PRES   REMARKS
AUGUSTA-BUSH   PTCLDY    67  55  65 W6        30.20R
6HR MIN TEMP:  67; 6HR MAX TEMP:  76;

AUGUSTA-DANIEL PTCLDY    70  56  61 CALM      30.21R
6HR MIN TEMP:  70; 6HR MAX TEMP:  77;

COLUMBUS       CLOUDY    68  57  68 NW5       30.23R
6HR MIN TEMP:  66; 6HR MAX TEMP:  69;

MACON          MOCLDY    67  59  75 W3        30.21S
6HR MIN TEMP:  65; 6HR MAX TEMP:  74;

ROBINS AFB     MOCLDY    69  59  69 SW3       30.20R


CITY           SKY/WX    TMP DP  RH WIND       PRES   REMARKS
LAGRANGE*      CLOUDY    63  62  95 N3        30.25S
SYLVANIA*      CLEAR     64  61  90 CALM      30.21S
MILLEDGEVILLE* PTCLDY    68  61  77 CALM      30.21R
$$

GAZ099>101-110>166-030100-
SOUTH GEORGIA

CITY           SKY/WX    TMP DP  RH WIND       PRES   REMARKS
SAVANNAH       MOCLDY    66  57  72 W5        30.21R
6HR MIN TEMP:  65; 6HR MAX TEMP:  77;

VALDOSTA       PTCLDY    64  61  90 CALM      30.24R
6HR MIN TEMP:  63; 6HR MAX TEMP:  74;

ALMA           PTCLDY    61  60  97 CALM      30.23S
6HR MIN TEMP:  61; 6HR MAX TEMP:  70;

ST SIMONS      CLEAR     57  54  89 CALM      30.23R
6HR MIN TEMP:  57; 6HR MAX TEMP:  73;

FT STEWART     CLEAR     66  60  80 CALM      30.20R
ALBANY         CLOUDY    64  60  87 CALM      30.26R
HUNTER AFB     CLEAR     69  60  73 SW5       30.19R
MOODY AFB      PTCLDY    65  60  86 NW3       30.23R
BRUNSWICK      CLEAR     64  61  88 CALM      30.24R


CITY           SKY/WX    TMP DP  RH WIND       PRES   REMARKS
BAINBRIDGE*    MOCLDY    64  61  88 SE3       30.24F
MOULTRIE*      PTCLDY    64  63  94 CALM      30.25S
VIDALIA*       CLEAR     70  61  73 CALM      30.22R
WAYCROSS*      PTCLDY    69  65  85 NW3       30.24R
DOUGLAS*       PTCLDY    64  63  94 SW3       30.25S
$$


USA.gov is the U.S. government's official web portal to all federal, state and local government web resources and services.